H1 CPF 2 NER 2024 9 9 9 253 01 glonass134 H2 1407501 9134 40315 2024 9 9 0 0 0 2024 9 12 23 45 0 900 1 1 0 0 0 1 H9 10 0 60562 0.00000 0 -4587029.944 11089478.731 -22477191.203 10 0 60562 900.00000 0 -6651279.573 9199362.148 -22818333.058 10 0 60562 1800.00000 0 -8853690.467 7449894.250 -22715207.475 10 0 60562 2700.00000 0 -11139731.166 5882339.056 -22170150.566 10 0 60562 3600.00000 0 -13448927.651 4527595.448 -21194096.135 10 0 60562 4500.00000 0 -15717216.412 3405107.590 -19806337.175 10 0 60562 5400.00000 0 -17879456.515 2522272.079 -18034126.435 10 0 60562 6300.00000 0 -19871995.957 1874363.321 -15912125.483 10 0 60562 7200.00000 0 -21635185.809 1444976.841 -13481714.395 10 0 60562 8100.00000 0 -23115738.502 1206968.709 -10790176.513 10 0 60562 9000.00000 0 -24268833.521 1123848.834 -7889774.736 10 0 60562 9900.00000 0 -25059884.609 1151567.400 -4836737.622 10 0 60562 10800.00000 0 -25465896.917 1240617.826 -1690174.805 10 0 60562 11700.00000 0 -25476359.587 1338367.067 1489057.693 10 0 60562 12600.00000 0 -25093638.445 1391515.100 4639521.055 10 0 60562 13500.00000 0 -24332853.965 1348580.606 7700364.755 10 0 60562 14400.00000 0 -23221250.613 1162309.142 10612483.858 10 0 60562 15300.00000 0 -21797084.298 791903.537 13319641.655 10 0 60562 16200.00000 0 -20108074.038 204983.738 15769537.626 10 0 60562 17100.00000 0 -18209481.462 -620805.593 17914801.764 10 0 60562 18000.00000 0 -16161896.701 -1696607.074 19713897.591 10 0 60562 18900.00000 0 -14028820.945 -3021632.570 21131917.768 10 0 60562 19800.00000 0 -11874144.182 -4582946.585 22141257.921 10 0 60562 20700.00000 0 -9759620.955 -6355762.222 22722156.143 10 0 60562 21600.00000 0 -7742447.267 -8304240.154 22863087.715 10 0 60562 22500.00000 0 -5873037.979 -10382760.517 22561006.767 10 0 60562 23400.00000 0 -4193096.327 -12537618.079 21821428.980 10 0 60562 24300.00000 0 -2734055.729 -14709073.359 20658351.935 10 0 60562 25200.00000 0 -1515959.209 -16833677.101 19094012.515 10 0 60562 26100.00000 0 -546824.163 -18846773.378 17158483.620 10 0 60562 27000.00000 0 177479.692 -20685078.183 14889115.619 10 0 60562 27900.00000 0 672832.705 -22289226.176 12329831.096 10 0 60562 28800.00000 0 965963.415 -23606178.374 9530284.793 10 0 60562 29700.00000 0 1093079.503 -24591388.486 6544903.845 10 0 60562 30600.00000 0 1098088.990 -25210634.883 3431826.425 10 0 60562 31500.00000 0 1030487.259 -25441438.745 251759.791 10 0 60562 32400.00000 0 943000.503 -25274006.301 -2933219.022 10 0 60562 33300.00000 0 889087.339 -24711653.260 -6060894.787 10 0 60562 34200.00000 0 920407.039 -23770691.970 -9070151.734 10 0 60562 35100.00000 0 1084364.583 -22479785.207 -11902190.668 10 0 60562 36000.00000 0 1421839.623 -20878793.800 -14501699.352 10 0 60562 36900.00000 0 1965198.403 -19017167.456 -16817951.015 10 0 60562 37800.00000 0 2736675.153 -16951947.932 -18805807.743 10 0 60562 38700.00000 0 3747193.227 -14745470.369 -20426607.939 10 0 60562 39600.00000 0 4995676.746 -12462861.334 -21648919.923 10 0 60562 40500.00000 0 6468882.131 -10169440.271 -22449147.112 10 0 60562 41400.00000 0 8141756.240 -7928134.533 -22811973.715 10 0 60562 42300.00000 0 9978305.213 -5797016.807 -22730643.538 10 0 60562 43200.00000 0 11932936.360 -3827067.606 -22207068.134 10 0 60562 44100.00000 0 13952215.623 -2060255.175 -21251764.062 10 0 60562 45000.00000 0 15976965.841 -528011.017 -19883622.472 10 0 60562 45900.00000 0 17944617.229 749838.013 -18129517.359 10 0 60562 46800.00000 0 19791711.430 1765639.690 -16023761.787 10 0 60562 47700.00000 0 21456454.620 2523968.136 -13607424.095 10 0 60562 48600.00000 0 22881213.683 3041158.604 -10927518.409 10 0 60562 49500.00000 0 24014852.404 3344348.073 -8036085.867 10 0 60562 50400.00000 0 24814811.614 3470064.629 -4989184.719 10 0 60562 51300.00000 0 25248848.263 3462426.912 -1845808.799 10 0 60562 52200.00000 0 25296362.677 3371030.657 1333245.141 10 0 60562 53100.00000 0 24949260.330 3248611.736 4486540.045 10 0 60562 54000.00000 0 24212313.683 3148583.915 7553169.713 10 0 60562 54900.00000 0 23103009.987 3122554.256 10473917.238 10 0 60562 55800.00000 0 21650891.856 3217919.674 13192379.812 10 0 60562 56700.00000 0 19896417.946 3475644.645 15656039.825 10 0 60562 57600.00000 0 17889390.294 3928312.489 17817263.278 10 0 60562 58500.00000 0 15687012.399 4598531.510 19634207.707 10 0 60562 59400.00000 0 13351656.866 5497762.897 21071623.474 10 0 60562 60300.00000 0 10948433.169 6625620.270 22101533.932 10 0 60562 61200.00000 0 8542654.305 7969671.740 22703781.808 10 0 60562 62100.00000 0 6197305.359 9505755.007 22866431.277 10 0 60562 63000.00000 0 3970617.236 11198795.228 22586017.291 10 0 60562 63900.00000 0 1913845.094 13004094.652 21867636.182 10 0 60562 64800.00000 0 69343.100 14869043.516 20724873.996 10 0 60562 65700.00000 0 -1530984.428 16735183.824 19179571.851 10 0 60562 66600.00000 0 -2866790.354 18540542.305 17261430.413 10 0 60562 67500.00000 0 -3929903.299 20222136.832 15007458.776 10 0 60562 68400.00000 0 -4724430.320 21718552.238 12461276.132 10 0 60562 69300.00000 0 -5266338.069 22972477.425 9672277.978 10 0 60562 70200.00000 0 -5582529.001 23933096.231 6694681.793 10 0 60562 71100.00000 0 -5709450.953 24558229.683 3586470.167 10 0 60562 72000.00000 0 -5691298.839 24816137.095 408252.242 10 0 60562 72900.00000 0 -5577885.299 24686897.493 -2777933.377 10 0 60562 73800.00000 0 -5422271.998 24163310.591 -5909849.253 10 0 60562 74700.00000 0 -5278264.160 23251277.153 -8926297.093 10 0 60562 75600.00000 0 -5197877.241 21969641.229 -11768336.478 10 0 60562 76500.00000 0 -5228886.014 20349500.167 -14380458.137 10 0 60562 77400.00000 0 -5412562.824 18433011.609 -16711686.520 10 0 60562 78300.00000 0 -5781703.298 16271748.539 -18716588.357 10 0 60562 79200.00000 0 -6359025.032 13924672.937 -20356166.236 10 0 60562 80100.00000 0 -7156008.209 11455814.872 -21598619.121 10 0 60562 81000.00000 0 -8172227.605 8931756.047 -22419955.076 10 0 60562 81900.00000 0 -9395203.935 6419024.592 -22804444.960 10 0 60562 82800.00000 0 -10800779.994 3981510.962 -22744909.496 10 0 60562 83700.00000 0 -12354004.533 1678012.997 -22242835.765 10 0 60562 84600.00000 0 -14010485.344 -439988.095 -21308322.777 10 0 60562 85500.00000 0 -15718153.328 -2330229.625 -19959859.102 10 0 60563 0.00000 0 -17419362.264 -3961170.071 -18223939.001 10 0 60563 900.00000 0 -19053236.411 -5313033.642 -16134525.196 10 0 60563 1800.00000 0 -20558165.015 -6378354.414 -13732372.568 10 0 60563 2700.00000 0 -21874342.583 -7162003.800 -11064223.928 10 0 60563 3600.00000 0 -22946247.032 -7680701.418 -8181896.357 10 0 60563 4500.00000 0 -23724954.130 -7962033.874 -5141275.390 10 0 60563 5400.00000 0 -24170192.733 -8043024.986 -2001236.563 10 0 60563 6300.00000 0 -24252056.523 -7968319.288 1177485.204 10 0 60563 7200.00000 0 -23952302.276 -7788056.214 4333457.217 10 0 60563 8100.00000 0 -23265181.843 -7555524.590 7405720.242 10 0 60563 9000.00000 0 -22197774.104 -7324695.747 10334948.050 10 0 60563 9900.00000 0 -20769803.554 -7147738.115 13064574.340 10 0 60563 10800.00000 0 -19012952.975 -7072616.676 15541866.945 10 0 60563 11700.00000 0 -16969698.029 -7140876.998 17718930.243 10 0 60563 12600.00000 0 -14691710.886 -7385705.958 19553617.941 10 0 60563 13500.00000 0 -12237897.314 -7830350.054 21010339.976 10 0 60563 14400.00000 0 -9672146.410 -8486957.783 22060748.973 10 0 60563 15300.00000 0 -7060883.907 -9355895.418 22684293.497 10 0 60563 16200.00000 0 -4470528.062 -10425566.511 22868627.459 10 0 60563 17100.00000 0 -1964951.462 -11672744.959 22609867.142 10 0 60563 18000.00000 0 396947.695 -13063410.537 21912689.706 10 0 60563 18900.00000 0 2563465.144 -14554055.038 20790269.542 10 0 60563 19800.00000 0 4492009.189 -16093407.463 19264051.578 10 0 60563 20700.00000 0 6150638.337 -17624508.766 17363363.525 10 0 60563 21600.00000 0 7519153.096 -19087051.399 15124872.156 10 0 60563 22500.00000 0 8589695.180 -20419886.838 12591891.890 10 0 60563 23400.00000 0 9366827.677 -21563596.159 9813557.259 10 0 60563 24300.00000 0 9867091.648 -22463014.951 6843874.021 10 0 60563 25200.00000 0 10118056.897 -23069604.764 3740666.810 10 0 60563 26100.00000 0 10156906.645 -23343568.925 564444.020 10 0 60563 27000.00000 0 10028616.243 -23255620.805 -2622797.017 10 0 60563 27900.00000 0 9783804.111 -22788327.136 -5758799.636 10 0 60563 28800.00000 0 9476347.729 -21936967.117 -8782286.081 10 0 60563 29700.00000 0 9160868.103 -20709868.949 -11634177.804 10 0 60563 30600.00000 0 8890192.062 -19128208.232 -14258771.549 10 0 60563 31500.00000 0 8712902.708 -17225276.170 -16604845.940 10 0 60563 32400.00000 0 8671084.404 -15045248.604 -18626675.121 10 0 60563 33300.00000 0 8798359.823 -12641508.544 -20284928.362 10 0 60563 34200.00000 0 9118303.565 -10074594.012 -21547437.427 10 0 60563 35100.00000 0 9643300.025 -7409858.765 -22389816.771 10 0 60563 36000.00000 0 10373893.638 -4714945.289 -22795925.196 10 0 60563 36900.00000 0 11298658.126 -2057176.769 -22758161.152 10 0 60563 37800.00000 0 12394588.931 499022.582 -22277587.613 10 0 60563 38700.00000 0 13628000.736 2894571.561 -21363885.937 10 0 60563 39600.00000 0 14955890.597 5077939.551 -20035141.608 10 0 60563 40500.00000 0 16327707.877 7007027.587 -18317467.898 10 0 60563 41400.00000 0 17687455.382 8650647.133 -16244476.506 10 0 60563 42300.00000 0 18976032.749 9989538.040 -13856606.901 10 0 60563 43200.00000 0 20133723.467 11016886.658 -11200328.512 10 0 60563 44100.00000 0 21102721.550 11738325.998 -8327231.952 10 0 60563 45000.00000 0 21829592.667 12171421.209 -5293027.306 10 0 60563 45900.00000 0 22267567.761 12344664.813 -2156468.824 10 0 60563 46800.00000 0 22378574.458 12296026.055 1021773.548 10 0 60563 47700.00000 0 22134922.672 12071116.753 4180274.695 10 0 60563 48600.00000 0 21520575.216 11721051.408 7258025.520 10 0 60563 49500.00000 0 20531951.304 11300091.450 10195593.516 10 0 60563 50400.00000 0 19178229.955 10863171.990 12936251.746 10 0 60563 51300.00000 0 17481140.581 10463413.942 15427056.099 10 0 60563 52200.00000 0 15474248.815 10149724.716 17619851.685 10 0 60563 53100.00000 0 13201765.943 9964586.989 19472190.454 10 0 60563 54000.00000 0 10716929.520 9942127.390 20948143.717 10 0 60563 54900.00000 0 8080020.008 10106545.611 22018994.870 10 0 60563 55800.00000 0 5356093.087 10470969.980 22663799.499 10 0 60563 56700.00000 0 2612518.949 11036788.355 22869802.088 10 0 60563 57600.00000 0 -83572.004 11793484.021 22632700.692 10 0 60563 58500.00000 0 -2667833.258 12718985.693 21956753.322 10 0 60563 59400.00000 0 -5081132.176 13780519.707 20854722.274 10 0 60563 60300.00000 0 -7271765.907 14935931.530 19347655.384 10 0 60563 61200.00000 0 -9197371.213 16135423.951 17464506.050 10 0 60563 62100.00000 0 -10826448.249 17323641.359 15241596.962 10 0 60563 63000.00000 0 -12139433.702 18442014.193 12721935.665 10 0 60563 63900.00000 0 -13129277.058 19431265.762 9954393.332 10 0 60563 64800.00000 0 -13801494.505 20233975.690 6992761.424 10 0 60563 65700.00000 0 -14173697.016 20797090.787 3894703.892 10 0 60563 66600.00000 0 -14274611.757 21074275.434 720625.562 10 0 60563 67500.00000 0 -14142638.048 21027999.662 -2467520.373 10 0 60563 68400.00000 0 -13823999.534 20631273.829 -5607460.892 10 0 60563 69300.00000 0 -13370572.148 19868953.751 -8637841.614 10 0 60563 70200.00000 0 -12837481.888 18738558.623 -11499448.595 10 0 60563 71100.00000 0 -12280576.646 17250565.249 -14136387.180 10 0 60563 72000.00000 0 -11753881.872 15428164.963 -16497192.535 10 0 60563 72900.00000 0 -11307150.427 13306493.081 -18535848.324 10 0 60563 73800.00000 0 -10983612.519 10931363.634 -20212692.335 10 0 60563 74700.00000 0 -10818022.515 8357563.449 -21495190.656 10 0 60563 75600.00000 0 -10835086.031 5646778.412 -22358565.350 10 0 60563 76500.00000 0 -11048333.741 2865240.086 -22786264.043 10 0 60563 77400.00000 0 -11459488.715 81192.264 -22770263.461 10 0 60563 78300.00000 0 -12058352.559 -2637716.046 -22311202.637 10 0 60563 79200.00000 0 -12823213.382 -5227002.376 -21418345.072 10 0 60563 80100.00000 0 -13721756.363 -7627780.759 -20109372.546 10 0 60563 81000.00000 0 -14712436.650 -9788950.101 -18410016.516 10 0 60563 81900.00000 0 -15746255.088 -11669051.988 -16353535.987 10 0 60563 82800.00000 0 -16768860.795 -13237723.270 -13980053.484 10 0 60563 83700.00000 0 -17722891.427 -14476686.061 -11335763.137 10 0 60563 84600.00000 0 -18550452.555 -15380237.230 -8472026.982 10 0 60563 85500.00000 0 -19195632.346 -15955220.255 -5444377.412 10 0 60564 0.00000 0 -19606946.724 -16220483.662 -2311445.337 10 0 60564 900.00000 0 -19739613.679 -16205851.335 866167.261 10 0 60564 1800.00000 0 -19557562.156 -15950649.431 4027045.055 10 0 60564 2700.00000 0 -19035093.295 -15501853.289 7110131.643 10 0 60564 3600.00000 0 -18158124.921 -14911932.006 10055890.834 10 0 60564 4500.00000 0 -16924968.130 -14236481.003 12807437.661 10 0 60564 5400.00000 0 -15346603.574 -13531741.011 15311618.631 10 0 60564 6300.00000 0 -13446445.351 -12852106.295 17520022.038 10 0 60564 7200.00000 0 -11259601.127 -12247725.229 19389900.356 10 0 60564 8100.00000 0 -8831657.389 -11762292.521 20884988.305 10 0 60564 9000.00000 0 -6217037.855 -11431124.624 21976201.799 10 0 60564 9900.00000 0 -3477000.447 -11279598.522 22642204.877 10 0 60564 10800.00000 0 -677352.903 -11322019.489 22869833.689 10 0 60564 11700.00000 0 2114021.117 -11560966.166 22654368.830 10 0 60564 12600.00000 0 4829725.453 -11987141.987 21999649.608 10 0 60564 13500.00000 0 7405400.085 -12579741.332 20918026.361 10 0 60564 14400.00000 0 9782150.632 -13307317.546 19430149.663 10 0 60564 15300.00000 0 11908758.268 -14129118.962 17564598.105 10 0 60564 16200.00000 0 13743577.967 -14996839.159 15357349.467 10 0 60564 17100.00000 0 15256045.093 -15856709.709 12851103.195 10 0 60564 18000.00000 0 16427726.088 -16651848.387 10094465.497 10 0 60564 18900.00000 0 17252867.755 -17324764.069 7141011.493 10 0 60564 19800.00000 0 17738420.658 -17819911.898 4048242.021 10 0 60564 20700.00000 0 17903534.487 -18086189.111 876455.560 10 0 60564 21600.00000 0 17778546.128 -18079263.693 -2312441.882 10 0 60564 22500.00000 0 17403503.253 -17763634.552 -5456164.148 10 0 60564 23400.00000 0 16826286.745 -17114333.075 -8493283.514 10 0 60564 24300.00000 0 16100412.983 -16118191.269 -11364453.914 10 0 60564 25200.00000 0 15282611.161 -14774620.485 -14013592.459 10 0 60564 26100.00000 0 14430280.702 -13095866.078 -16388993.863 10 0 60564 27000.00000 0 13598938.894 -11106726.246 -18444354.096 10 0 60564 27900.00000 0 12839769.004 -8843746.657 -20139681.951 10 0 60564 28800.00000 0 12197374.313 -6353925.161 -21442079.989 10 0 60564 29700.00000 0 11707833.978 -3692981.876 -22326379.635 10 0 60564 30600.00000 0 11397143.032 -923268.322 -22775618.657 10 0 60564 31500.00000 0 11280101.708 1888595.783 -22781352.918 10 0 60564 32400.00000 0 11359699.535 4674258.416 -22343797.918 10 0 60564 33300.00000 0 11627018.229 7366237.659 -21471799.265 10 0 60564 34200.00000 0 12061655.163 9900482.332 -20182634.579 10 0 60564 35100.00000 0 12632647.201 12218785.127 -18501652.639 10 0 60564 36000.00000 0 13299853.750 14270949.419 -16461758.510 10 0 60564 36900.00000 0 14015738.930 16016621.762 -14102756.152 10 0 60564 37800.00000 0 14727476.445 17426716.527 -11470562.411 10 0 60564 38700.00000 0 15379287.821 18484376.408 -8616308.421 10 0 60564 39600.00000 0 15914915.417 19185431.881 -5595346.239 10 0 60564 40500.00000 0 16280126.595 19538343.476 -2466179.979 10 0 60564 41400.00000 0 16425144.577 19563632.001 710658.281 10 0 60564 42300.00000 0 16306904.961 19292822.623 3873766.713 10 0 60564 43200.00000 0 15891044.354 18766948.535 6962044.751 10 0 60564 44100.00000 0 15153538.775 18034677.551 9915855.576 10 0 60564 45000.00000 0 14081923.969 17150140.107 12678159.076 10 0 60564 45900.00000 0 12676046.822 16170549.023 15195595.051 10 0 60564 46800.00000 0 10948316.135 15153709.546 17419497.412 10 0 60564 47700.00000 0 8923441.246 14155522.529 19306821.336 10 0 60564 48600.00000 0 6637667.666 13227583.742 20820966.846 10 0 60564 49500.00000 0 4137539.150 12414978.423 21932483.988 10 0 60564 50400.00000 0 1478234.835 11754362.410 22619646.530 10 0 60564 51300.00000 0 -1278452.636 11272409.683 22868883.216 10 0 60564 52200.00000 0 -4066417.292 10984691.518 22675057.704 10 0 60564 53100.00000 0 -6817725.782 10895035.083 22041590.670 10 0 60564 54000.00000 0 -9465188.467 10995389.857 20980420.092 10 0 60564 54900.00000 0 -11944910.751 11266209.446 19511798.386 10 0 60564 55800.00000 0 -14198719.604 11677335.021 17663927.959 10 0 60564 56700.00000 0 -16176364.582 12189345.436 15472439.849 10 0 60564 57600.00000 0 -17837400.981 12755319.139 12979723.214 10 0 60564 58500.00000 0 -19152675.318 13322934.942 10234116.801 10 0 60564 59400.00000 0 -20105349.382 13836823.587 7288976.706 10 0 60564 60300.00000 0 -20691418.212 14241070.438 4201637.851 10 0 60564 61200.00000 0 -20919698.722 14481762.209 1032289.516 10 0 60564 62100.00000 0 -20811288.356 14509467.922 -2157212.336 10 0 60564 63000.00000 0 -20398516.164 14281546.412 -5304571.242 10 0 60564 63900.00000 0 -19723430.935 13764179.668 -8348288.913 10 0 60564 64800.00000 0 -18835891.334 12934042.944 -11228889.838 10 0 60564 65700.00000 0 -17791340.586 11779538.226 -13890105.440 10 0 60564 66600.00000 0 -16648362.011 10301536.696 -16279992.314 10 0 60564 67500.00000 0 -15466121.204 8513597.359 -18351960.817 10 0 60564 68400.00000 0 -14301805.241 6441651.782 -20065692.521 10 0 60564 69300.00000 0 -13208169.015 4123168.240 -21387927.889 10 0 60564 70200.00000 0 -12231293.503 1605830.884 -22293108.765 10 0 60564 71100.00000 0 -11408650.987 -1054209.708 -22763863.752 10 0 60564 72000.00000 0 -10767558.362 -3794440.255 -22791328.158 10 0 60564 72900.00000 0 -10324082.422 -6548353.803 -22375293.899 10 0 60564 73800.00000 0 -10082441.244 -9247984.511 -21524188.261 10 0 60564 74700.00000 0 -10034924.425 -11826502.279 -20254883.934 10 0 60564 75600.00000 0 -10162332.762 -14220759.533 -18592345.927 10 0 60564 76500.00000 0 -10434916.178 -16373685.259 -16569123.992 10 0 60564 77400.00000 0 -10813767.915 -18236428.284 -14224701.912 10 0 60564 78300.00000 0 -11252614.292 -19770162.858 -11604717.468 10 0 60564 79200.00000 0 -11699923.216 -20947484.036 -8760068.983 10 0 60564 80100.00000 0 -12101241.902 -21753337.538 -5745926.202 10 0 60564 81000.00000 0 -12401665.212 -22185448.230 -2620664.688 10 0 60564 81900.00000 0 -12548331.147 -22254231.982 555256.028 10 0 60564 82800.00000 0 -12492839.330 -21982196.855 3720449.471 10 0 60564 83700.00000 0 -12193491.854 -21402860.288 6813773.111 10 0 60564 84600.00000 0 -11617263.446 -20559228.574 9775491.764 10 0 60564 85500.00000 0 -10741419.183 -19501902.468 12548412.497 10 0 60565 0.00000 0 -9554712.540 -18286887.863 15078970.530 10 0 60565 900.00000 0 -8058112.904 -16973201.396 17318248.164 10 0 60565 1800.00000 0 -6265033.010 -15620371.349 19222905.249 10 0 60565 2700.00000 0 -4201043.270 -14285934.450 20756009.181 10 0 60565 3600.00000 0 -1903084.188 -13023033.162 21887745.982 10 0 60565 4500.00000 0 581793.637 -11878211.797 22596000.749 10 0 60565 5400.00000 0 3198112.623 -10889502.659 22866796.133 10 0 60565 6300.00000 0 5884007.864 -10084881.780 22694579.876 10 0 60565 7200.00000 0 8573541.810 -9481159.056 22082354.751 10 0 60565 8100.00000 0 11199200.745 -9083350.113 21041646.797 10 0 60565 9000.00000 0 13694471.647 -8884557.610 19592310.380 10 0 60565 9900.00000 0 15996393.720 -8866368.767 17762171.520 10 0 60565 10800.00000 0 18047979.070 -8999754.369 15586513.951 10 0 60565 11700.00000 0 19800401.326 -9246433.210 13107415.594 10 0 60565 12600.00000 0 21214859.807 -9560645.955 10372946.367 10 0 60565 13500.00000 0 22264039.665 -9891264.295 7436241.526 10 0 60565 14400.00000 0 22933104.931 -10184146.326 4354467.819 10 0 60565 15300.00000 0 23220180.872 -10384637.569 1187702.662 10 0 60565 16200.00000 0 23136303.830 -10440110.087 -2002251.019 10 0 60565 17100.00000 0 22704839.609 -10302429.672 -5153089.680 10 0 60565 18000.00000 0 21960394.683 -9930243.710 -8203247.805 10 0 60565 18900.00000 0 20947266.670 -9290989.733 -11093123.767 10 0 60565 19800.00000 0 19717500.781 -8362536.646 -13766266.530 10 0 60565 20700.00000 0 18328636.182 -7134386.664 -16170497.634 10 0 60565 21600.00000 0 16841239.643 -5608385.162 -18258944.647 10 0 60565 22500.00000 0 15316332.840 -3798907.267 -19990964.476 10 0 60565 23400.00000 0 13812823.877 -1732512.838 -21332937.736 10 0 60565 24300.00000 0 12385052.770 552915.493 -22258918.605 10 0 60565 25200.00000 0 11080555.040 3009514.341 -22751128.051 10 0 60565 26100.00000 0 9938137.415 5581204.384 -22800281.971 10 0 60565 27000.00000 0 8986345.594 8205803.077 -22405749.405 10 0 60565 27900.00000 0 8242386.634 10817396.091 -21575539.609 10 0 60565 28800.00000 0 7711548.785 13348867.949 -20326120.196 10 0 60565 29700.00000 0 7387140.237 15734486.322 -18682071.834 10 0 60565 30600.00000 0 7250946.249 17912432.896 -16675587.961 10 0 60565 31500.00000 0 7274182.493 19827176.550 -14345830.772 10 0 60565 32400.00000 0 7418901.819 21431591.757 -11738157.163 10 0 60565 33300.00000 0 7639793.156 22688736.198 -8903230.437 10 0 60565 34200.00000 0 7886295.363 23573215.990 -5896035.464 10 0 60565 35100.00000 0 8104936.245 24072084.242 -2774816.385 10 0 60565 36000.00000 0 8241798.157 24185238.005 400042.912 10 0 60565 36900.00000 0 8245006.848 23925299.248 3567174.550 10 0 60565 37800.00000 0 8067139.658 23316986.609 6665397.322 10 0 60565 38700.00000 0 7667452.814 22396005.317 9634880.923 10 0 60565 39600.00000 0 7013835.247 21207502.076 12418282.711 10 0 60565 40500.00000 0 6084407.624 19804149.274 14961836.683 10 0 60565 41400.00000 0 4868699.835 18243937.586 17216375.313 10 0 60565 42300.00000 0 3368357.249 16587767.783 19138266.039 10 0 60565 43200.00000 0 1597345.112 14896940.531 20690245.769 10 0 60565 44100.00000 0 -418359.269 13230647.020 21842138.323 10 0 60565 45000.00000 0 -2641576.259 11643563.407 22571441.600 10 0 60565 45900.00000 0 -5025204.836 10183647.928 22863773.228 10 0 60565 46800.00000 0 -7513924.831 8890231.640 22713165.660 10 0 60565 47700.00000 0 -10046253.037 7792482.124 22122203.906 10 0 60565 48600.00000 0 -12556870.878 6908304.612 21102001.690 10 0 60565 49500.00000 0 -14979129.520 6243727.316 19672014.415 10 0 60565 50400.00000 0 -17247630.068 5792798.093 17859690.251 10 0 60565 51300.00000 0 -19300772.471 5537998.345 15699963.687 10 0 60565 52200.00000 0 -21083166.949 5451158.414 13234599.025 10 0 60565 53100.00000 0 -22547806.448 5494837.366 10511394.632 10 0 60565 54000.00000 0 -23657907.765 5624109.884 7583261.966 10 0 60565 54900.00000 0 -24388342.221 5788685.082 4507196.507 10 0 60565 55800.00000 0 -24726593.666 5935267.049 1343160.667 10 0 60565 56700.00000 0 -24673201.524 6010055.820 -1847098.780 10 0 60565 57600.00000 0 -24241668.640 5961280.666 -5001274.251 10 0 60565 58500.00000 0 -23457836.869 5741655.630 -8057735.931 10 0 60565 59400.00000 0 -22358756.614 5310650.225 -10956758.875 10 0 60565 60300.00000 0 -20991098.642 4636476.014 -13641712.195 10 0 60565 61200.00000 0 -19409176.597 3697702.200 -16060184.747 10 0 60565 62100.00000 0 -17672665.489 2484429.580 -18165023.374 10 0 60565 63000.00000 0 -15844114.455 998971.641 -19915262.019 10 0 60565 63900.00000 0 -13986360.668 -743986.782 -21276922.722 10 0 60565 64800.00000 0 -12159954.879 -2717760.180 -22223672.797 10 0 60565 65700.00000 0 -10420707.935 -4884546.343 -22737325.930 10 0 60565 66600.00000 0 -8817461.597 -7196785.653 -22808178.491 10 0 60565 67500.00000 0 -7390176.601 -9598937.684 -22435176.113 10 0 60565 68400.00000 0 -6168416.629 -12029599.724 -21625909.112 10 0 60565 69300.00000 0 -5170289.507 -14423877.829 -20396438.791 10 0 60565 70200.00000 0 -4401887.097 -16715911.013 -18770959.973 10 0 60565 71100.00000 0 -3857244.144 -18841443.388 -16781308.074 10 0 60565 72000.00000 0 -3518814.467 -20740337.620 -14466321.845 10 0 60565 72900.00000 0 -3358441.334 -22358926.210 -11871075.352 10 0 60565 73800.00000 0 -3338778.535 -23652104.277 -9045994.900 10 0 60565 74700.00000 0 -3415100.241 -24585078.679 -6045878.504 10 0 60565 75600.00000 0 -3537422.105 -25134702.836 -2928836.933 10 0 60565 76500.00000 0 -3652843.602 -25290343.864 244823.496 10 0 60565 77400.00000 0 -3708013.007 -25054247.939 3413755.419 10 0 60565 78300.00000 0 -3651611.753 -24441390.412 6516740.871 10 0 60565 79200.00000 0 -3436754.513 -23478818.133 9493856.368 10 0 60565 80100.00000 0 -3023205.098 -22204512.023 12287611.530 10 0 60565 81000.00000 0 -2379315.975 -20665817.287 14844040.897 10 0 60565 81900.00000 0 -1483610.565 -18917505.967 17113729.516 10 0 60565 82800.00000 0 -325942.063 -17019551.325 19052754.052 10 0 60565 83700.00000 0 1091820.411 -15034705.051 20623522.664 10 0 60565 84600.00000 0 2755608.357 -13025976.207 21795498.534 10 0 60565 85500.00000 0 4639482.959 -11054114.926 22545793.691 99